Time,TemperatureF,DewpointF,PressureIn,WindDirection,WindDirectionDegrees,WindSpeedMPH,WindSpeedGustMPH,Humidity,HourlyPrecipIn,Conditions,Clouds,dailyrainin,SoftwareType,DateUTC
2013-05-08 00:02:00,60.0,57.0,30.00,SSW,197,0.0,0.0,90,0.00,,,0.01,,2013-05-08 05:02:00,
2013-05-08 00:12:00,60.0,57.0,30.00,SSW,197,0.0,0.0,90,0.00,,,0.01,,2013-05-08 05:12:00,
2013-05-08 00:22:00,60.0,57.0,30.00,SSW,197,0.0,0.0,90,0.00,,,0.01,,2013-05-08 05:22:00,
2013-05-08 00:32:00,60.0,57.0,30.00,SSW,197,0.0,0.0,90,0.00,,,0.01,,2013-05-08 05:32:00,
2013-05-08 00:42:00,60.0,57.0,30.00,SSW,197,0.0,0.0,90,0.00,,,0.01,,2013-05-08 05:42:00,
2013-05-08 00:52:00,59.0,57.0,29.99,SSW,197,0.0,0.0,92,0.00,,,0.01,,2013-05-08 05:52:00,
2013-05-08 01:01:00,59.0,57.0,29.99,SSW,197,0.0,0.0,92,0.00,,,0.01,,2013-05-08 06:01:00,
2013-05-08 01:12:00,59.0,57.0,29.99,SSW,197,0.0,0.0,92,0.00,,,0.01,,2013-05-08 06:12:00,
2013-05-08 01:21:00,58.0,56.0,29.98,SSW,197,0.0,0.0,93,0.00,,,0.01,,2013-05-08 06:21:00,
2013-05-08 01:32:00,58.0,56.0,29.98,SSW,197,0.0,0.0,93,0.00,,,0.00,,2013-05-08 06:32:00,
2013-05-08 01:42:00,58.0,56.0,29.98,SSW,197,0.0,0.0,93,0.00,,,0.00,,2013-05-08 06:42:00,
2013-05-08 01:52:00,58.0,56.0,29.98,SSW,197,0.0,0.0,94,0.00,,,0.00,,2013-05-08 06:52:00,
2013-05-08 02:02:00,57.0,55.0,29.98,SSW,197,0.0,0.0,94,0.00,,,0.00,,2013-05-08 07:02:00,
2013-05-08 02:11:00,57.0,55.0,29.98,SSW,197,0.0,0.0,94,0.00,,,0.00,,2013-05-08 07:11:00,
2013-05-08 02:21:00,57.0,55.0,29.97,SSW,197,0.0,0.0,94,0.00,,,0.00,,2013-05-08 07:21:00,
2013-05-08 02:32:00,57.0,55.0,29.97,SSW,197,0.0,0.0,94,0.00,,,0.00,,2013-05-08 07:32:00,
2013-05-08 02:42:00,57.0,55.0,29.97,SSW,197,0.0,0.0,94,0.00,,,0.00,,2013-05-08 07:42:00,
2013-05-08 02:52:00,57.0,56.0,29.97,SSW,201,0.0,0.0,95,0.00,,,0.00,,2013-05-08 07:52:00,
2013-05-08 03:01:00,57.0,55.0,29.97,SSW,201,0.0,0.0,94,0.00,,,0.00,,2013-05-08 08:01:00,
2013-05-08 03:11:00,57.0,55.0,29.97,SSW,201,0.0,0.0,94,0.00,,,0.00,,2013-05-08 08:11:00,
2013-05-08 03:21:00,57.0,56.0,29.97,SSW,201,0.0,0.0,95,0.00,,,0.00,,2013-05-08 08:21:00,
2013-05-08 03:32:00,56.0,55.0,29.97,SW,221,0.0,0.0,95,0.00,,,0.00,,2013-05-08 08:32:00,
2013-05-08 03:42:00,56.0,55.0,29.97,SW,221,0.0,0.0,95,0.00,,,0.00,,2013-05-08 08:42:00,
2013-05-08 03:51:00,57.0,56.0,29.97,NW,304,0.0,0.0,95,0.00,,,0.00,,2013-05-08 08:51:00,
2013-05-08 04:02:00,57.0,55.0,29.98,NW,304,0.0,0.0,94,0.00,,,0.00,,2013-05-08 09:02:00,
2013-05-08 04:11:00,57.0,55.0,29.98,NW,304,0.0,0.0,94,0.00,,,0.00,,2013-05-08 09:11:00,
2013-05-08 04:21:00,57.0,55.0,29.98,NW,311,0.0,0.0,94,0.00,,,0.00,,2013-05-08 09:21:00,
2013-05-08 04:32:00,56.0,54.0,29.98,NW,311,0.0,0.0,93,0.00,,,0.00,,2013-05-08 09:32:00,
2013-05-08 04:42:00,56.0,54.0,29.98,NW,311,0.0,0.0,93,0.00,,,0.00,,2013-05-08 09:42:00,
2013-05-08 04:52:00,56.0,54.0,29.98,NW,311,0.0,0.0,94,0.00,,,0.00,,2013-05-08 09:52:00,
2013-05-08 05:02:00,56.0,54.0,29.99,NW,311,0.0,0.0,94,0.00,,,0.00,,2013-05-08 10:02:00,
2013-05-08 05:12:00,56.0,54.0,29.99,NW,311,0.0,0.0,94,0.00,,,0.00,,2013-05-08 10:12:00,
2013-05-08 05:22:00,55.0,53.0,29.99,NW,311,0.0,0.0,94,0.00,,,0.00,,2013-05-08 10:22:00,
2013-05-08 05:33:00,55.0,53.0,29.99,NW,311,0.0,0.0,94,0.00,,,0.00,,2013-05-08 10:33:00,
2013-05-08 05:42:00,55.0,53.0,29.99,NW,311,0.0,0.0,94,0.00,,,0.00,,2013-05-08 10:42:00,
2013-05-08 05:52:00,55.0,53.0,30.00,NW,311,0.0,0.0,94,0.00,,,0.00,,2013-05-08 10:52:00,
2013-05-08 06:02:00,55.0,54.0,30.00,NW,311,0.0,0.0,95,0.00,,,0.00,,2013-05-08 11:02:00,
2013-05-08 06:11:00,55.0,54.0,30.00,NW,311,0.0,0.0,95,0.00,,,0.00,,2013-05-08 11:11:00,
2013-05-08 06:22:00,54.0,52.0,30.01,NW,311,0.0,0.0,94,0.00,,,0.00,,2013-05-08 11:22:00,
2013-05-08 06:32:00,54.0,53.0,30.01,NW,311,0.0,0.0,95,0.00,,,0.00,,2013-05-08 11:32:00,
2013-05-08 06:42:00,54.0,53.0,30.01,NW,311,0.0,0.0,95,0.00,,,0.00,,2013-05-08 11:42:00,
2013-05-08 06:52:00,54.0,53.0,30.02,NW,311,0.0,0.0,96,0.01,,,0.01,,2013-05-08 11:52:00,
2013-05-08 07:01:00,55.0,54.0,30.03,NW,311,0.0,0.0,96,0.01,,,0.01,,2013-05-08 12:01:00,
2013-05-08 07:11:00,55.0,54.0,30.03,NW,311,0.0,0.0,96,0.01,,,0.01,,2013-05-08 12:11:00,
2013-05-08 07:21:00,56.0,55.0,30.03,NW,312,0.0,5.0,95,0.01,,,0.01,,2013-05-08 12:21:00,
2013-05-08 07:32:00,56.0,54.0,30.03,NW,311,0.0,3.0,94,0.01,,,0.01,,2013-05-08 12:32:00,
2013-05-08 07:41:00,56.0,54.0,30.03,NW,311,0.0,3.0,94,0.01,,,0.01,,2013-05-08 12:41:00,
2013-05-08 07:51:00,57.0,55.0,30.04,WNW,299,1.0,5.0,94,0.00,,,0.01,,2013-05-08 12:51:00,
2013-05-08 08:01:00,59.0,57.0,30.04,NW,306,0.0,2.0,92,0.00,,,0.01,,2013-05-08 13:01:00,
2013-05-08 08:11:00,59.0,57.0,30.04,NW,306,0.0,2.0,92,0.00,,,0.01,,2013-05-08 13:11:00,
2013-05-08 08:21:00,60.0,56.0,30.05,NNW,344,1.0,7.0,88,0.00,,,0.01,,2013-05-08 13:21:00,
2013-05-08 08:32:00,62.0,57.0,30.05,North,11,0.0,3.0,85,0.00,,,0.01,,2013-05-08 13:32:00,
2013-05-08 08:42:00,62.0,57.0,30.05,North,11,0.0,3.0,85,0.00,,,0.01,,2013-05-08 13:42:00,
2013-05-08 08:52:00,63.0,57.0,30.05,NW,323,1.0,4.0,81,0.00,,,0.01,,2013-05-08 13:52:00,
2013-05-08 09:02:00,65.0,58.0,30.06,North,355,0.0,3.0,78,0.00,,,0.01,,2013-05-08 14:02:00,
2013-05-08 09:11:00,65.0,58.0,30.06,North,355,0.0,3.0,78,0.00,,,0.01,,2013-05-08 14:11:00,
2013-05-08 09:21:00,66.0,58.0,30.06,WNW,293,1.0,5.0,76,0.00,,,0.01,,2013-05-08 14:21:00,
2013-05-08 09:32:00,67.0,58.0,30.06,North,355,4.0,8.0,73,0.00,,,0.01,,2013-05-08 14:32:00,
2013-05-08 09:42:00,67.0,58.0,30.06,North,355,4.0,8.0,73,0.00,,,0.01,,2013-05-08 14:42:00,
2013-05-08 09:51:00,68.0,57.0,30.06,NNW,342,3.0,7.0,69,0.00,,,0.01,,2013-05-08 14:51:00,
2013-05-08 10:02:00,69.0,57.0,30.05,North,5,0.0,6.0,65,0.00,,,0.01,,2013-05-08 15:02:00,
2013-05-08 10:11:00,69.0,57.0,30.05,North,5,0.0,6.0,65,0.00,,,0.01,,2013-05-08 15:11:00,
2013-05-08 10:21:00,70.0,59.0,30.06,West,281,0.0,5.0,68,0.00,,,0.01,,2013-05-08 15:21:00,
2013-05-08 10:33:00,70.0,58.0,30.06,WSW,248,1.0,6.0,66,0.00,,,0.01,,2013-05-08 15:33:00,
2013-05-08 10:42:00,70.0,58.0,30.06,WSW,248,1.0,6.0,66,0.00,,,0.01,,2013-05-08 15:42:00,
2013-05-08 10:52:00,71.0,58.0,30.05,West,270,0.0,5.0,63,0.00,,,0.01,,2013-05-08 15:52:00,
2013-05-08 11:03:00,71.0,58.0,30.05,West,281,0.0,4.0,63,0.00,,,0.01,,2013-05-08 16:03:00,
2013-05-08 11:12:00,71.0,58.0,30.05,West,281,0.0,4.0,63,0.00,,,0.01,,2013-05-08 16:12:00,
2013-05-08 11:23:00,73.0,58.0,30.05,ENE,75,0.0,5.0,59,0.00,,,0.01,,2013-05-08 16:23:00,
2013-05-08 11:33:00,73.0,57.0,30.05,West,267,0.0,5.0,58,0.00,,,0.01,,2013-05-08 16:33:00,
2013-05-08 11:42:00,73.0,57.0,30.05,West,267,0.0,5.0,58,0.00,,,0.01,,2013-05-08 16:42:00,
2013-05-08 11:52:00,73.0,56.0,30.05,NNE,31,0.0,5.0,56,0.00,,,0.01,,2013-05-08 16:52:00,
2013-05-08 12:02:00,74.0,57.0,30.05,SSW,202,0.0,4.0,55,0.00,,,0.01,,2013-05-08 17:02:00,
2013-05-08 12:12:00,74.0,57.0,30.05,SSW,202,0.0,4.0,55,0.00,,,0.01,,2013-05-08 17:12:00,
2013-05-08 12:22:00,75.0,57.0,30.05,WSW,258,0.0,1.0,54,0.00,,,0.01,,2013-05-08 17:22:00,
2013-05-08 12:32:00,75.0,57.0,30.05,WSW,258,0.0,1.0,54,0.00,,,0.01,,2013-05-08 17:32:00,
2013-05-08 12:41:00,75.0,57.0,30.05,WSW,258,0.0,1.0,54,0.00,,,0.01,,2013-05-08 17:41:00,
2013-05-08 12:52:00,76.0,57.0,30.04,WNW,285,1.0,4.0,52,0.00,,,0.01,,2013-05-08 17:52:00,
2013-05-08 13:02:00,76.0,57.0,30.04,NW,311,2.0,8.0,51,0.00,,,0.01,,2013-05-08 18:02:00,
2013-05-08 13:11:00,76.0,57.0,30.04,NW,311,2.0,8.0,51,0.00,,,0.01,,2013-05-08 18:11:00,
2013-05-08 13:21:00,76.0,57.0,30.03,WNW,293,2.0,7.0,52,0.00,,,0.01,,2013-05-08 18:21:00,
2013-05-08 13:32:00,76.0,54.0,30.03,West,277,1.0,6.0,46,0.00,,,0.01,,2013-05-08 18:32:00,
2013-05-08 13:42:00,76.0,54.0,30.03,West,277,1.0,6.0,46,0.00,,,0.01,,2013-05-08 18:42:00,
2013-05-08 13:51:00,76.0,55.0,30.03,SSW,193,0.0,8.0,48,0.00,,,0.01,,2013-05-08 18:51:00,
2013-05-08 14:01:00,77.0,53.0,30.03,WNW,300,5.0,9.0,43,0.00,,,0.01,,2013-05-08 19:01:00,
2013-05-08 14:11:00,77.0,53.0,30.03,WNW,300,5.0,9.0,43,0.00,,,0.01,,2013-05-08 19:11:00,
2013-05-08 14:21:00,77.0,53.0,30.03,SSW,207,1.0,5.0,44,0.00,,,0.01,,2013-05-08 19:21:00,
2013-05-08 14:32:00,77.0,52.0,30.03,West,281,3.0,6.0,42,0.00,,,0.01,,2013-05-08 19:32:00,
2013-05-08 14:42:00,77.0,52.0,30.03,West,281,3.0,6.0,42,0.00,,,0.01,,2013-05-08 19:42:00,
2013-05-08 14:52:00,77.0,53.0,30.02,WNW,303,0.0,8.0,44,0.00,,,0.01,,2013-05-08 19:52:00,
2013-05-08 15:02:00,78.0,52.0,30.02,NNW,328,0.0,10.0,41,0.00,,,0.01,,2013-05-08 20:02:00,
2013-05-08 15:11:00,78.0,52.0,30.02,NNW,328,0.0,10.0,41,0.00,,,0.01,,2013-05-08 20:11:00,
2013-05-08 15:22:00,78.0,53.0,30.01,WSW,249,0.0,8.0,42,0.00,,,0.01,,2013-05-08 20:22:00,
2013-05-08 15:32:00,78.0,50.0,30.01,NNW,341,5.0,8.0,38,0.00,,,0.01,,2013-05-08 20:32:00,
2013-05-08 15:42:00,78.0,50.0,30.01,North,5,2.0,7.0,38,0.00,,,0.01,,2013-05-08 20:42:00,
2013-05-08 15:51:00,78.0,50.0,30.01,North,5,2.0,7.0,38,0.00,,,0.01,,2013-05-08 20:51:00,
2013-05-08 16:01:00,79.0,52.0,30.01,West,272,3.0,8.0,39,0.00,,,0.01,,2013-05-08 21:01:00,
2013-05-08 16:12:00,78.0,52.0,30.00,NW,312,0.0,6.0,41,0.00,,,0.01,,2013-05-08 21:12:00,
2013-05-08 16:21:00,78.0,52.0,30.00,NW,312,0.0,6.0,41,0.00,,,0.01,,2013-05-08 21:21:00,
2013-05-08 16:33:00,78.0,54.0,30.00,North,360,0.0,6.0,43,0.00,,,0.01,,2013-05-08 21:33:00,
2013-05-08 16:43:00,79.0,53.0,29.99,NW,309,2.0,7.0,41,0.00,,,0.01,,2013-05-08 21:43:00,
2013-05-08 16:52:00,79.0,53.0,29.99,NW,309,2.0,7.0,41,0.00,,,0.01,,2013-05-08 21:52:00,
2013-05-08 17:02:00,79.0,55.0,29.99,NE,40,0.0,3.0,44,0.00,,,0.01,,2013-05-08 22:02:00,
2013-05-08 17:12:00,79.0,55.0,29.99,NE,40,0.0,3.0,44,0.00,,,0.01,,2013-05-08 22:12:00,
2013-05-08 17:22:00,79.0,52.0,29.99,WNW,294,1.0,8.0,39,0.00,,,0.01,,2013-05-08 22:22:00,
2013-05-08 17:33:00,78.0,52.0,29.99,NW,319,0.0,5.0,40,0.00,,,0.01,,2013-05-08 22:33:00,
2013-05-08 17:42:00,79.0,55.0,29.99,NNW,347,0.0,0.0,43,0.00,,,0.01,,2013-05-08 22:42:00,
2013-05-08 17:52:00,79.0,55.0,29.99,NNW,347,0.0,0.0,43,0.00,,,0.01,,2013-05-08 22:52:00,
2013-05-08 18:01:00,79.0,51.0,29.99,WNW,288,0.0,1.0,38,0.00,,,0.01,,2013-05-08 23:01:00,
2013-05-08 18:11:00,78.0,52.0,29.99,West,261,1.0,5.0,40,0.00,,,0.01,,2013-05-08 23:11:00,
2013-05-08 18:22:00,78.0,52.0,29.99,West,261,1.0,5.0,40,0.00,,,0.01,,2013-05-08 23:22:00,
2013-05-08 18:32:00,78.0,53.0,29.99,NNW,345,0.0,3.0,42,0.00,,,0.01,,2013-05-08 23:32:00,
2013-05-08 18:42:00,78.0,52.0,29.98,NNW,329,1.0,4.0,40,0.00,,,0.01,,2013-05-08 23:42:00,
2013-05-08 18:52:00,78.0,52.0,29.98,NNW,329,1.0,4.0,40,0.00,,,0.01,,2013-05-08 23:52:00,
2013-05-08 19:02:00,78.0,54.0,29.99,NW,309,0.0,1.0,44,0.00,,,0.01,,2013-05-09 00:02:00,
2013-05-08 19:12:00,78.0,54.0,29.99,NW,309,0.0,1.0,44,0.00,,,0.01,,2013-05-09 00:12:00,
2013-05-08 19:21:00,77.0,56.0,29.99,SSW,206,0.0,0.0,48,0.00,,,0.01,,2013-05-09 00:21:00,
2013-05-08 19:32:00,76.0,57.0,29.99,SSW,206,0.0,0.0,51,0.00,,,0.01,,2013-05-09 00:32:00,
2013-05-08 19:42:00,74.0,57.0,29.99,SSW,206,0.0,0.0,55,0.00,,,0.01,,2013-05-09 00:42:00,
2013-05-08 19:52:00,74.0,57.0,29.99,SSW,206,0.0,0.0,55,0.00,,,0.01,,2013-05-09 00:52:00,
2013-05-08 20:01:00,72.0,57.0,29.99,SSW,206,0.0,0.0,60,0.00,,,0.01,,2013-05-09 01:01:00,
2013-05-08 20:11:00,72.0,57.0,29.99,SSW,206,0.0,0.0,60,0.00,,,0.01,,2013-05-09 01:11:00,
2013-05-08 20:22:00,70.0,56.0,29.99,SSW,206,0.0,0.0,62,0.00,,,0.01,,2013-05-09 01:22:00,
2013-05-08 20:32:00,69.0,56.0,30.00,SSW,206,0.0,0.0,64,0.00,,,0.01,,2013-05-09 01:32:00,
2013-05-08 20:42:00,68.0,55.0,30.00,SSW,206,0.0,0.0,63,0.00,,,0.01,,2013-05-09 01:42:00,
2013-05-08 20:52:00,68.0,55.0,30.00,SSW,206,0.0,0.0,63,0.00,,,0.01,,2013-05-09 01:52:00,
2013-05-08 21:02:00,67.0,55.0,30.01,SSW,206,0.0,0.0,65,0.00,,,0.01,,2013-05-09 02:02:00,
2013-05-08 21:11:00,67.0,55.0,30.01,SSW,206,0.0,0.0,65,0.00,,,0.01,,2013-05-09 02:11:00,
2013-05-08 21:21:00,66.0,57.0,30.01,SSW,206,0.0,0.0,74,0.00,,,0.01,,2013-05-09 02:21:00,
2013-05-08 21:32:00,65.0,57.0,30.01,SSW,206,0.0,0.0,75,0.00,,,0.01,,2013-05-09 02:32:00,
2013-05-08 21:41:00,65.0,57.0,30.01,SSW,206,0.0,0.0,75,0.00,,,0.01,,2013-05-09 02:41:00,
2013-05-08 21:52:00,65.0,57.0,30.01,SSW,206,0.0,0.0,75,0.00,,,0.01,,2013-05-09 02:52:00,
2013-05-08 22:01:00,65.0,57.0,30.02,SSW,206,0.0,0.0,75,0.00,,,0.01,,2013-05-09 03:01:00,
2013-05-08 22:11:00,65.0,57.0,30.02,SSW,206,0.0,0.0,75,0.00,,,0.01,,2013-05-09 03:11:00,
2013-05-08 22:21:00,64.0,57.0,30.02,SSW,206,0.0,0.0,79,0.00,,,0.01,,2013-05-09 03:21:00,
2013-05-08 22:33:00,63.0,56.0,30.02,SSW,206,0.0,0.0,77,0.00,,,0.01,,2013-05-09 03:33:00,
2013-05-08 22:43:00,63.0,56.0,30.02,SSW,206,0.0,0.0,77,0.00,,,0.01,,2013-05-09 03:43:00,
2013-05-08 22:52:00,62.0,54.0,30.02,SSW,206,0.0,0.0,76,0.00,,,0.01,,2013-05-09 03:52:00,
2013-05-08 23:03:00,63.0,57.0,30.02,SSW,206,0.0,0.0,81,0.00,,,0.01,,2013-05-09 04:03:00,
2013-05-08 23:12:00,63.0,57.0,30.02,SSW,206,0.0,0.0,81,0.00,,,0.01,,2013-05-09 04:12:00,
2013-05-08 23:23:00,62.0,57.0,30.02,SSW,206,0.0,0.0,83,0.00,,,0.01,,2013-05-09 04:23:00,
2013-05-08 23:33:00,62.0,57.0,30.01,SSW,206,0.0,0.0,83,0.00,,,0.01,,2013-05-09 04:33:00,
2013-05-08 23:43:00,62.0,57.0,30.01,SSW,206,0.0,0.0,83,0.00,,,0.01,,2013-05-09 04:43:00,
2013-05-08 23:52:00,61.0,55.0,30.01,SSW,206,0.0,0.0,80,0.00,,,0.01,,2013-05-09 04:52:00,